GFSCGP_sfc_wetblb_096.txt.gz
Wetbulb
41.83 36.91 34.14 37.61 38.47 39.58 38.65 37.02 36.30 39.85 43.32 40.34 38.94 39.91 42.33 44.51 44.65 46.01 44.61 44.78 46.39 51.02 53.98 54.82 56.68 57.69 58.53 58.71 59.45 59.39 59.20 59.98 61.54 60.99 62.15 63.71 64.78 68.41 68.94 69.20 69.76 69.34 68.22 70.99
38.52 34.92 41.46 43.19 42.96 41.09 39.53 36.95 36.43 39.94 42.93 40.55 39.32 38.88 42.46 42.63 44.18 44.16 44.70 45.09 46.43 48.21 51.44 54.70 55.43 56.03 56.00 56.48 57.85 58.96 59.39 59.07 59.34 60.18 60.40 60.54 62.59 63.94 65.80 64.79 64.93 67.15 69.43 69.25
35.72 40.20 45.00 43.38 41.61 40.48 38.89 37.01 36.90 37.57 41.24 40.89 38.91 36.53 39.16 42.55 44.11 45.56 45.67 45.64 47.52 49.01 50.72 52.91 54.30 54.65 54.79 55.10 55.31 56.67 57.26 57.62 57.64 58.22 59.26 60.21 61.81 60.69 60.85 61.50 63.00 63.70 64.48 64.67
37.91 42.50 42.52 40.70 39.75 39.95 34.90 41.22 41.13 39.88 36.11 29.67 38.95 28.60 36.84 39.87 41.24 43.61 44.46 44.00 44.60 47.38 50.59 53.01 53.70 52.74 55.29 55.29 56.29 56.34 57.42 57.45 57.85 59.32 57.62 57.18 57.70 57.64 60.78 61.51 62.66 63.27 65.01 66.11
38.26 40.01 39.69 38.85 40.07 42.05 38.10 42.22 39.97 39.30 34.43 30.41 33.11 29.08 35.49 38.70 39.48 41.20 43.45 44.70 44.78 45.39 49.98 51.17 52.28 53.08 53.48 54.04 53.53 56.61 57.17 56.41 58.18 58.06 57.62 56.13 55.71 57.21 59.49 60.57 60.63 61.36 62.96 64.40
40.38 44.03 42.19 41.19 43.66 42.91 43.41 39.39 36.73 34.34 31.17 26.02 31.61 30.71 33.28 36.52 38.23 41.06 44.18 46.09 47.73 48.62 48.25 51.90 52.68 52.81 52.93 53.99 53.43 55.21 54.99 55.57 57.24 57.17 57.07 57.36 56.71 56.37 56.87 57.86 59.12 60.08 60.93 61.48
39.71 40.27 43.50 44.36 39.67 42.48 38.50 31.88 24.97 23.10 23.76 26.48 34.17 31.27 34.31 39.39 42.83 44.29 43.83 45.89 47.74 48.43 46.59 50.11 51.47 52.15 52.48 52.58 52.42 55.89 55.18 54.13 55.47 55.80 56.15 55.93 55.50 56.98 56.66 58.12 58.64 59.01 59.65 60.49
33.12 32.45 40.54 44.64 40.60 37.63 36.29 34.65 30.77 21.51 21.16 27.27 34.76 28.91 34.58 43.09 45.17 45.91 46.81 47.23 46.03 45.82 49.18 51.17 51.70 51.63 51.78 51.88 51.93 55.73 52.96 51.70 54.45 54.94 54.97 54.99 55.27 55.37 56.59 57.85 56.72 58.57 58.83 60.89
32.91 34.41 43.48 44.49 43.65 41.14 36.29 32.43 35.69 32.91 34.18 27.83 29.42 33.93 39.98 43.34 43.16 45.10 45.10 46.04 45.54 45.93 47.45 49.94 50.96 51.53 49.94 49.58 51.32 51.74 53.34 52.97 53.88 54.66 54.62 55.09 55.74 55.82 56.22 56.09 56.31 56.70 58.50 60.03
38.55 32.45 41.26 43.09 43.52 41.88 39.33 40.84 32.30 33.30 24.46 24.27 28.15 30.64 31.86 36.58 40.59 42.76 43.40 46.09 46.71 46.56 47.68 47.67 48.89 49.84 50.21 49.97 51.77 51.55 53.16 54.35 53.95 54.79 54.15 55.04 53.60 55.16 56.26 55.77 55.95 56.75 57.96 58.47
39.37 35.72 36.57 39.90 37.38 35.00 35.66 34.41 34.85 32.58 31.63 27.61 24.04 26.32 35.94 37.47 39.73 40.13 41.84 45.31 45.25 46.46 46.86 47.46 46.43 47.28 47.81 47.97 47.84 49.13 51.23 53.15 52.53 53.51 54.43 53.51 53.98 55.06 56.52 57.01 56.69 55.77 55.39 55.47
40.39 35.31 30.77 34.67 40.12 41.64 39.68 35.54 34.03 27.03 25.63 32.45 31.62 30.85 42.52 41.06 42.58 42.31 42.85 46.33 45.65 47.17 46.59 45.93 46.58 46.82 46.55 46.95 48.38 49.15 49.82 51.79 53.40 54.08 54.14 54.09 54.62 54.67 54.09 53.66 53.32 52.98 53.89 55.39
39.77 32.98 27.38 29.79 33.83 37.80 36.03 38.16 36.62 35.79 35.03 29.79 28.60 27.42 42.71 43.76 42.91 43.24 42.49 45.64 46.00 47.10 46.89 47.13 47.99 47.21 47.71 47.52 48.08 48.04 49.68 51.23 52.11 52.61 53.46 53.46 53.59 53.26 52.93 52.96 52.95 52.93 54.92 54.46
43.14 34.42 31.55 27.89 32.87 36.65 34.47 35.99 37.60 35.90 29.26 28.32 30.93 33.58 38.37 41.00 42.22 43.29 43.13 43.32 44.33 46.72 48.14 48.48 47.34 46.39 48.83 48.66 49.37 49.95 48.55 49.25 49.41 49.67 49.77 50.79 51.56 52.37 53.02 53.30 52.98 53.47 53.81 53.50
38.32 32.21 34.20 35.11 37.57 37.57 36.49 35.47 36.05 34.48 34.10 29.95 32.90 34.55 37.85 39.48 40.75 41.67 43.51 44.93 45.36 46.19 48.19 48.21 49.43 49.02 47.75 48.90 50.87 51.11 51.07 50.88 51.15 51.22 50.62 50.42 50.35 50.55 52.04 52.30 52.96 54.13 54.15 54.96
36.69 30.10 33.74 32.60 36.31 36.19 33.75 35.60 35.61 35.62 35.41 34.74 35.52 35.27 40.29 41.54 42.77 42.15 42.71 44.49 44.46 45.33 46.56 48.39 48.69 49.94 50.45 50.43 50.54 50.73 50.41 50.01 50.55 49.84 49.83 50.74 51.29 52.28 52.38 51.84 52.10 52.68 53.20 53.12
32.03 30.45 28.25 24.57 33.42 33.11 27.35 32.61 35.45 36.58 37.84 37.88 32.64 37.61 41.02 40.24 41.78 41.94 41.77 43.77 44.92 46.29 46.63 45.81 46.47 47.53 48.36 48.69 49.16 50.57 50.27 49.93 49.59 49.67 50.53 51.54 51.42 50.96 50.87 51.98 52.03 51.50 50.96 51.57
30.76 28.41 26.56 23.53 27.68 19.34 31.23 40.02 40.48 36.37 37.75 39.71 38.11 40.14 42.93 41.75 41.92 43.35 45.01 43.07 44.21 45.14 45.24 45.87 47.66 46.78 46.94 47.39 47.84 48.27 48.97 49.89 50.67 50.93 51.29 51.60 50.85 50.39 49.92 49.28 48.80 48.82 48.79 49.13
35.10 30.77 25.36 22.68 20.28 28.98 33.31 38.18 36.96 36.09 36.26 40.68 39.18 41.00 41.85 41.73 40.21 39.82 45.18 44.50 43.30 43.75 44.81 45.06 46.85 47.99 47.27 47.02 47.59 47.49 47.99 48.56 49.44 49.93 50.17 49.82 49.47 48.43 48.28 47.61 47.04 47.14 47.49 48.94
37.43 36.80 31.23 22.60 20.23 20.52 32.22 40.22 42.72 41.72 31.66 41.35 40.87 39.90 39.15 39.23 33.87 36.55 42.07 42.45 40.76 41.28 41.88 41.83 43.09 44.54 44.30 44.42 45.02 45.41 46.24 46.97 46.90 47.92 48.85 49.36 48.97 48.00 47.41 47.37 47.71 48.53 48.59 48.33
29.64 30.54 22.43 22.92 24.89 29.49 39.05 41.24 43.63 29.22 31.39 40.77 39.53 38.60 37.81 35.16 37.69 40.75 42.23 41.03 41.00 40.02 40.84 42.15 41.97 41.45 42.61 44.20 44.43 43.66 44.33 44.45 47.07 48.88 49.09 48.95 48.88 48.58 48.71 48.43 48.40 48.10 47.98 48.53
31.68 29.23 27.47 30.26 28.78 24.51 41.10 40.66 35.28 38.04 40.14 39.75 39.44 38.93 38.30 39.21 40.03 40.27 40.42 40.47 40.31 40.36 40.86 41.28 40.27 40.37 41.87 43.32 42.94 42.33 42.63 44.60 45.82 46.89 47.38 47.44 47.77 48.51 48.89 47.96 47.96 49.08 48.99 48.54
31.31 35.66 29.76 29.66 29.36 37.81 39.59 39.17 39.47 39.92 37.89 38.65 38.89 39.47 40.14 38.87 38.36 41.37 39.94 39.89 40.41 40.23 39.98 40.68 39.45 39.38 40.58 42.13 42.70 41.42 42.65 44.19 45.08 45.45 45.72 46.46 47.31 47.59 48.01 47.56 47.85 48.64 49.22 48.99
36.17 37.63 34.55 31.62 35.04 34.54 36.84 37.91 38.17 39.23 38.12 39.31 40.24 40.91 40.47 38.69 40.05 39.57 40.66 40.53 39.82 40.19 39.82 40.37 38.97 38.24 38.84 40.57 41.27 41.60 42.62 43.74 43.49 42.98 43.77 45.22 45.35 46.50 49.04 50.01 49.76 49.05 48.70 48.95
34.42 34.82 31.49 31.24 33.84 36.03 37.32 38.39 39.45 40.37 41.34 41.07 40.87 40.00 39.89 39.59 40.09 38.65 38.50 37.95 36.90 38.49 39.35 38.65 37.66 37.02 37.89 39.59 40.28 41.68 42.35 43.36 43.44 44.37 45.25 46.32 46.94 47.24 47.76 48.32 48.39 48.39 49.21 49.21
36.65 32.04 26.38 27.49 36.25 36.59 37.04 40.06 40.77 39.56 39.18 39.67 38.76 39.00 40.92 39.94 37.65 38.19 35.68 35.91 37.92 36.60 37.88 37.49 37.94 38.32 39.15 40.32 41.30 42.58 43.93 44.02 43.54 43.65 44.91 45.99 46.65 47.37 47.78 48.05 48.27 45.87 45.57 43.96

GFSCGP_sfc_wetblb_102.txt.gz
Wetbulb
38.46 34.34 31.83 34.80 35.61 36.01 34.87 33.25 33.12 36.03 39.64 36.88 36.32 36.70 39.31 41.40 41.01 41.27 41.82 42.39 42.56 43.89 48.77 51.57 53.06 53.41 54.92 56.24 58.41 61.25 63.69 66.88 67.99 68.12 68.28 68.05 67.78 68.12 68.57 68.65 68.79 67.97 69.39 70.20
35.51 32.27 37.88 39.01 38.34 36.89 35.39 32.75 32.90 36.57 39.50 37.02 36.78 36.01 38.80 39.95 40.52 41.26 42.10 42.39 42.69 43.19 44.82 46.70 50.44 53.06 54.87 56.40 56.38 58.57 60.88 63.30 67.32 67.48 63.46 64.33 65.09 66.57 66.37 67.03 67.74 68.37 68.35 68.78
33.15 37.02 41.27 39.69 37.20 36.13 34.24 32.83 33.70 34.85 37.77 37.33 35.09 32.72 36.36 39.69 40.46 42.32 43.10 42.99 43.19 43.91 44.86 46.74 48.88 51.90 53.11 54.44 55.97 57.66 60.04 60.42 61.17 60.97 60.19 59.98 60.62 60.77 62.48 63.28 65.83 67.20 67.59 67.86
35.33 38.99 38.99 36.54 36.48 37.07 31.42 38.18 38.01 36.87 33.13 28.08 35.17 28.41 32.38 36.58 37.99 40.20 41.66 41.55 42.32 43.00 43.83 45.82 48.35 50.10 52.81 54.61 55.60 56.08 56.40 57.98 59.41 59.40 59.07 58.69 57.45 57.12 59.06 59.97 61.94 64.26 65.34 65.09
36.27 36.09 35.90 35.43 37.29 38.55 35.69 38.98 37.10 36.25 31.75 27.91 30.23 25.41 30.50 34.70 35.64 37.97 39.22 40.99 42.22 43.33 43.93 44.50 45.96 49.39 52.08 54.09 54.88 55.97 55.70 55.67 56.80 57.62 57.99 57.46 56.53 56.75 57.76 58.64 59.57 60.49 62.37 64.15
37.82 40.05 39.35 38.41 40.28 40.26 40.50 36.11 33.03 30.04 27.70 22.96 29.74 28.15 28.99 32.76 36.64 37.41 40.08 41.58 43.20 43.66 44.81 45.29 45.79 47.48 50.71 52.33 53.42 54.84 55.05 54.56 55.37 55.98 55.57 55.46 55.49 55.37 55.79 56.42 57.25 57.97 59.33 60.56
36.19 37.90 39.68 41.31 36.81 39.40 35.68 30.33 23.67 22.69 22.32 25.42 32.24 27.73 32.79 36.09 39.05 39.32 40.39 41.95 43.01 43.90 44.12 45.25 45.93 45.91 48.83 51.07 52.97 54.73 54.48 54.11 55.14 55.67 55.47 54.99 54.44 54.76 54.93 55.12 56.02 57.09 58.07 58.42
29.79 30.62 37.64 41.07 38.01 36.58 32.88 31.47 25.09 20.93 20.32 26.60 31.65 25.17 30.98 38.23 41.27 42.72 42.66 42.61 42.94 42.65 43.39 45.37 47.50 46.20 46.21 50.74 53.04 55.10 54.62 53.84 55.04 55.29 55.25 55.90 55.28 54.48 54.54 55.23 56.14 56.60 56.64 57.75
29.16 31.24 41.33 42.38 41.21 39.26 33.71 29.40 32.89 27.64 27.62 24.45 27.27 31.58 37.63 40.90 40.47 41.17 42.24 42.33 42.31 42.85 43.99 45.70 47.04 48.16 48.15 50.18 52.37 54.47 54.49 53.95 54.62 54.88 54.91 54.98 54.44 53.59 54.45 55.22 56.10 56.36 56.56 57.97
35.90 29.82 39.01 41.68 42.36 41.41 39.03 40.74 32.04 30.71 24.74 20.31 25.45 27.81 29.62 36.16 37.49 40.55 40.83 41.16 41.59 43.07 44.07 44.69 45.42 47.57 47.49 47.99 49.89 52.71 53.62 54.41 54.89 55.28 55.74 54.11 53.74 54.10 54.55 54.66 55.33 55.99 56.42 57.33
38.77 33.77 34.72 37.71 36.45 35.74 35.85 34.98 35.53 34.64 32.50 26.96 25.68 26.76 34.65 35.44 37.62 39.26 40.27 41.86 42.70 42.69 43.16 44.10 45.53 47.34 47.50 48.19 50.35 49.89 51.00 51.49 52.63 52.80 53.55 53.47 53.69 54.39 54.59 54.86 55.52 55.85 56.29 56.72
39.74 36.20 31.47 34.90 38.87 41.65 39.67 36.30 36.85 30.68 29.17 31.52 26.25 28.62 39.49 37.28 39.24 40.94 40.51 42.63 43.52 44.82 44.73 44.96 45.25 47.63 48.83 49.36 48.49 49.16 49.82 49.87 50.83 52.27 52.28 51.87 52.99 53.62 54.18 54.84 55.63 56.15 55.84 56.40
39.10 33.80 29.81 31.02 35.18 38.79 37.22 38.13 37.35 35.58 33.12 28.29 26.02 28.29 39.28 40.35 39.90 41.67 40.69 42.50 44.09 46.41 45.69 46.09 46.04 45.66 47.25 48.49 49.72 49.90 49.08 48.94 49.72 50.81 51.96 52.30 52.00 51.82 52.64 53.62 55.46 55.66 56.10 56.24
42.36 34.24 31.91 28.78 31.90 35.39 33.82 36.32 37.12 35.06 29.71 26.70 28.87 31.81 35.71 38.61 39.70 40.87 40.61 42.07 43.82 45.11 46.19 45.99 44.87 45.09 47.09 48.69 48.66 49.91 50.52 50.62 49.76 49.91 49.90 50.86 51.31 52.14 52.81 53.79 54.36 55.02 55.48 55.93
38.85 31.74 34.22 35.18 36.56 36.17 34.48 34.69 35.37 33.18 33.42 29.65 31.04 30.88 34.97 36.52 38.84 39.40 41.26 42.74 44.47 45.05 45.31 45.56 45.35 45.32 46.29 46.59 48.35 49.74 49.76 50.25 50.39 50.00 49.18 49.02 50.83 51.49 52.13 52.44 53.16 54.06 54.29 54.40
36.76 29.15 32.40 31.23 34.76 34.44 33.27 34.62 34.06 34.54 34.24 33.33 33.65 32.83 36.45 38.15 40.99 42.50 40.85 42.34 42.78 42.93 43.79 45.29 45.71 45.73 45.62 45.79 46.69 47.22 47.44 48.34 49.46 48.79 48.79 49.73 49.80 50.27 50.18 51.68 52.46 52.50 52.89 53.00
32.01 30.08 29.12 25.72 31.20 31.08 26.66 30.82 32.29 33.02 34.77 33.87 29.73 33.73 37.10 38.04 40.17 40.95 41.10 42.68 41.89 42.02 42.34 43.06 43.61 43.55 43.58 43.66 44.78 44.29 45.74 47.27 47.44 47.87 48.90 49.87 50.65 50.37 50.56 51.24 51.24 51.47 52.10 52.75
29.42 28.54 28.40 24.20 27.36 20.20 29.83 38.76 38.25 35.84 37.71 38.81 38.06 39.39 40.09 40.54 39.88 40.26 41.69 40.76 40.98 40.76 40.49 40.92 41.68 41.88 42.22 41.93 42.48 43.11 44.08 44.42 44.87 45.30 46.92 48.96 49.68 49.93 50.38 50.43 50.75 51.59 51.58 51.28
35.10 31.38 25.72 24.24 22.62 27.35 31.90 37.12 36.42 34.42 34.06 39.21 39.42 39.87 39.95 39.37 38.61 38.09 42.12 41.89 40.39 40.91 40.83 41.24 42.30 41.39 41.54 42.36 42.94 42.31 42.25 42.35 42.70 43.01 44.10 45.81 47.85 48.08 49.02 49.50 50.00 50.56 50.86 50.71
35.15 36.68 30.74 26.22 21.27 21.05 27.91 39.37 40.87 40.07 29.89 38.91 38.90 37.28 36.55 37.10 32.25 35.23 39.26 40.42 40.95 41.92 41.20 41.09 41.73 42.35 42.10 42.10 42.54 41.59 41.32 41.12 40.91 42.05 43.11 44.66 45.67 46.72 46.78 47.71 48.41 49.39 48.81 49.96
31.15 31.97 25.28 28.59 26.62 29.52 36.90 39.48 41.11 27.79 26.62 35.87 36.33 35.41 35.27 35.13 36.75 39.23 40.69 40.30 41.16 41.30 41.18 42.09 42.05 41.76 42.34 42.83 42.22 40.67 40.99 40.40 41.88 42.58 42.92 43.33 44.39 44.94 45.70 46.49 47.51 47.88 47.93 48.35
29.41 29.23 22.68 28.13 25.86 21.91 36.71 36.79 30.10 32.16 34.70 36.11 36.18 37.41 37.19 38.31 39.37 40.21 40.53 39.87 39.63 39.58 41.20 41.34 39.79 39.52 40.78 42.01 42.14 40.12 39.52 41.65 42.34 42.12 41.80 41.88 42.86 43.72 44.47 44.89 45.72 47.22 47.50 47.33
29.28 32.76 27.42 29.15 26.39 34.20 35.37 35.00 37.24 36.49 36.11 36.05 37.91 39.51 39.78 39.53 38.87 38.13 37.85 38.37 39.93 40.67 39.16 40.03 39.31 39.13 40.17 39.92 39.22 37.56 39.71 42.56 42.00 41.23 40.75 41.43 42.40 43.32 44.22 43.87 43.95 44.04 44.99 44.90
33.32 35.13 32.25 31.37 32.49 33.55 35.31 36.21 37.09 37.65 38.61 39.96 40.20 39.90 38.93 37.15 37.47 37.50 39.28 39.15 40.26 38.94 37.81 39.12 38.82 36.89 36.65 38.27 40.26 40.34 40.94 41.33 40.25 39.51 39.57 40.19 40.27 41.03 41.94 42.32 42.62 42.52 43.15 43.88
32.79 32.92 30.20 30.10 31.86 34.02 35.38 36.12 37.17 38.15 39.71 40.15 40.29 39.42 39.17 39.12 38.32 36.28 36.04 36.38 36.96 36.62 37.09 37.81 35.95 35.73 36.63 38.11 38.81 39.93 39.78 40.20 39.39 39.99 40.38 40.66 41.30 41.58 41.75 42.44 42.60 42.95 43.87 43.60
33.33 30.96 26.55 27.35 33.13 33.14 33.95 36.62 38.21 37.16 38.30 39.88 39.28 39.04 40.17 39.67 36.24 36.41 35.50 36.82 37.53 36.90 35.18 35.08 35.81 35.68 36.63 36.92 38.01 39.15 40.18 40.31 39.73 39.58 40.47 41.23 42.02 42.64 43.36 43.44 43.85 42.55 42.34 42.43

GFSCGP_sfc_wetblb_105.txt.gz
Wetbulb
44.45 42.50 39.94 42.29 42.68 41.07 40.39 39.49 39.40 42.49 45.30 42.69 43.71 44.22 46.37 48.72 48.46 48.85 50.13 50.58 51.43 52.54 55.21 55.45 57.08 59.74 61.26 63.82 65.47 67.70 69.51 71.66 71.41 70.37 69.66 69.88 69.60 70.18 69.98 70.87 71.94 71.91 71.96 72.86
42.41 39.77 43.47 42.85 42.39 41.16 40.53 39.36 39.78 42.59 44.67 42.80 43.86 43.46 46.25 47.50 48.00 49.04 49.41 50.32 51.57 52.52 53.97 55.49 56.64 58.06 60.73 62.15 65.18 65.86 67.98 70.62 71.54 71.37 71.72 71.24 71.08 70.72 70.15 70.22 71.86 71.83 71.43 72.24
40.33 41.94 44.04 42.37 41.82 40.38 40.73 39.44 40.01 40.27 42.86 43.24 42.55 41.57 43.80 46.55 47.48 48.73 49.82 50.91 51.23 51.60 52.27 53.76 55.10 57.04 59.37 61.12 62.61 64.65 66.89 68.30 70.85 72.36 71.98 69.72 71.34 71.18 70.77 70.67 71.14 71.30 70.64 70.90
41.73 44.28 42.13 41.55 40.62 41.86 38.84 42.90 42.61 41.16 39.89 36.70 41.95 34.74 42.15 44.40 45.51 47.07 48.94 50.23 51.31 51.71 53.29 53.85 54.82 56.54 58.38 59.89 61.94 63.33 65.23 67.44 68.55 70.29 69.67 70.22 69.07 68.40 70.08 70.39 71.03 70.77 71.39 70.47
41.08 41.18 40.58 40.38 41.91 43.05 41.06 42.79 41.91 41.24 39.98 38.04 39.75 36.35 40.79 43.33 42.86 45.53 48.32 49.75 50.91 52.05 52.39 52.48 53.89 55.57 57.00 58.10 59.91 62.45 63.58 64.03 66.75 68.07 70.08 69.44 69.96 70.87 68.78 69.87 68.79 70.39 70.94 71.18
43.50 44.79 43.67 43.63 43.38 43.83 44.34 42.32 40.55 39.11 38.87 33.70 39.00 37.56 38.73 41.46 43.89 46.41 48.32 48.86 49.72 50.54 52.15 53.83 55.27 56.40 56.67 58.32 58.95 60.85 62.38 63.17 64.49 66.34 67.61 68.34 68.91 65.99 65.43 66.97 66.69 66.67 67.76 69.14
42.33 42.86 45.18 44.72 42.23 44.85 42.73 40.18 34.18 32.90 33.04 32.64 40.85 37.82 39.93 44.67 46.39 47.54 47.36 48.68 50.96 51.89 51.93 52.44 53.45 54.92 56.50 57.58 58.19 59.25 60.81 61.78 63.24 63.95 65.93 66.21 67.03 66.06 66.00 65.25 64.72 65.02 64.70 65.28
37.05 36.24 41.95 44.42 43.01 42.01 41.73 40.88 35.07 28.40 30.67 34.21 38.13 34.73 39.72 45.38 47.62 47.60 48.40 49.93 50.46 51.31 52.63 52.98 53.99 55.35 56.42 57.34 57.17 57.60 58.95 60.46 62.49 62.98 63.93 64.17 64.22 63.80 64.02 64.38 63.31 63.37 64.03 65.02
35.86 36.12 43.46 45.16 46.15 44.34 42.15 37.55 42.60 36.89 36.16 33.15 36.90 40.49 43.96 46.30 46.19 46.85 48.11 49.50 49.83 50.96 52.24 53.00 53.72 54.49 55.87 57.06 57.91 58.09 58.38 59.49 61.56 61.79 62.11 62.26 62.60 62.67 61.85 63.29 63.87 63.23 64.54 63.43
41.42 35.43 42.67 43.93 44.90 44.02 42.41 44.23 36.98 37.97 29.23 28.15 35.04 35.55 37.56 42.42 44.46 45.94 47.20 47.83 48.66 50.96 51.87 52.89 53.28 54.43 54.94 56.24 57.56 58.60 59.11 59.06 60.31 61.47 61.87 61.79 61.89 61.68 61.47 62.04 62.48 63.48 63.79 63.66
42.60 38.69 39.41 42.67 40.78 40.23 40.62 39.48 40.17 39.43 37.16 30.73 29.42 35.44 43.72 43.10 44.68 45.38 46.69 47.68 48.40 49.88 51.39 52.44 53.14 53.96 55.54 56.05 55.75 57.24 57.87 57.83 58.73 59.70 60.11 60.56 60.53 59.72 60.67 60.85 62.48 63.17 64.11 63.62
42.69 39.87 35.01 37.83 44.19 43.45 42.25 40.24 40.21 35.83 33.16 35.45 34.25 34.48 45.24 44.73 45.71 46.41 46.26 47.40 48.77 50.61 51.68 52.11 52.39 52.86 53.70 54.18 54.74 55.85 55.97 56.30 58.14 58.46 56.94 57.66 59.30 59.63 59.42 59.86 61.95 63.31 63.25 63.29
42.09 37.28 32.48 34.44 39.33 41.54 39.54 41.45 40.35 38.70 36.50 33.55 30.77 34.46 44.57 45.80 45.71 46.14 45.95 47.26 48.28 50.04 50.91 51.14 51.31 51.37 51.97 53.04 53.91 55.18 56.20 56.30 56.40 55.97 55.66 57.26 59.05 59.14 59.71 59.65 61.45 62.19 62.77 62.92
42.64 38.04 35.21 31.06 34.69 38.11 35.62 37.44 38.93 37.42 33.44 34.02 33.74 36.37 40.78 42.50 42.80 44.75 46.30 47.32 48.21 49.70 49.19 49.63 49.69 50.14 49.62 51.26 51.96 52.08 52.62 51.83 53.62 55.59 56.05 56.34 56.48 57.19 58.55 59.15 60.89 61.17 62.03 62.15
40.30 34.12 35.94 36.79 37.40 37.42 36.07 35.83 36.34 34.65 36.10 32.99 35.40 35.79 39.45 41.87 42.92 45.00 46.42 46.59 46.73 47.45 47.35 48.06 48.35 49.09 49.10 48.45 50.12 50.59 51.14 51.21 50.68 50.71 51.74 53.66 54.58 55.63 55.81 56.79 58.08 59.84 60.23 61.43
40.93 34.23 35.57 32.84 35.97 35.99 33.69 35.85 36.26 36.15 36.57 37.10 36.87 35.90 43.07 43.76 44.77 44.65 45.47 44.54 43.12 46.27 47.10 47.26 46.83 46.94 47.25 47.79 48.93 49.39 49.60 50.21 50.32 48.88 49.43 51.28 52.97 53.80 55.55 55.75 56.31 57.30 58.37 59.57
37.48 35.26 32.90 28.43 33.85 33.85 30.48 35.12 36.06 36.68 38.14 38.10 34.54 39.69 43.03 42.90 43.81 44.17 44.27 44.35 43.70 44.84 46.54 46.31 46.20 46.46 46.60 46.80 47.00 47.90 48.50 49.22 49.34 49.30 48.61 49.61 51.33 51.62 52.99 54.24 54.96 56.43 57.08 58.55
36.12 35.28 34.39 29.39 31.99 24.16 35.37 41.51 40.66 38.47 40.11 41.79 41.45 42.50 43.30 42.46 43.15 44.53 45.42 44.72 45.27 46.73 45.80 46.13 46.40 46.54 46.80 47.42 47.77 48.20 48.49 48.07 48.03 47.95 48.19 48.34 48.83 49.86 51.66 52.43 53.02 54.97 56.72 57.31
38.96 35.86 31.16 28.56 28.94 32.69 34.45 38.92 38.42 36.45 36.53 41.90 41.48 41.73 42.49 41.76 41.75 42.82 45.42 46.06 45.23 45.82 46.17 46.34 46.99 46.97 46.54 46.85 47.86 47.59 47.35 47.47 47.30 47.04 47.43 48.00 48.38 48.30 48.86 49.51 51.52 53.11 54.02 55.18
37.76 38.60 33.87 30.53 26.94 24.37 34.58 40.75 42.64 41.60 32.64 38.75 38.93 38.54 38.86 39.71 32.40 38.16 44.12 44.30 43.98 44.93 45.74 45.39 46.12 45.99 46.10 47.01 47.64 46.31 45.70 45.96 45.92 46.89 47.30 47.70 47.58 47.29 47.47 48.55 49.66 51.30 52.25 52.45
32.10 33.46 30.31 30.82 30.24 33.30 39.46 41.09 42.70 31.55 34.23 40.21 40.46 40.33 39.95 37.37 38.82 41.75 43.26 43.23 45.02 44.93 44.33 45.28 45.28 45.14 46.00 46.15 45.65 44.04 43.89 43.96 46.34 47.02 46.99 47.00 47.01 46.85 47.10 47.40 48.48 49.24 49.93 51.30
33.70 31.85 31.31 32.33 29.25 26.52 39.94 39.86 34.70 39.74 41.66 41.23 41.35 41.12 40.64 41.62 42.37 42.34 42.24 42.90 43.08 42.06 43.31 43.24 42.33 42.83 44.20 44.90 44.52 43.38 42.32 43.74 44.15 44.52 45.16 45.07 46.20 46.14 46.08 46.26 46.93 47.81 48.52 49.70
33.27 37.13 35.37 35.52 35.88 40.24 41.72 41.02 42.69 42.71 41.05 41.41 41.51 42.22 41.05 39.50 40.43 40.94 41.27 41.72 41.08 41.56 40.36 40.82 41.92 42.35 42.66 43.14 43.40 41.50 42.15 42.95 43.44 42.93 43.09 43.99 43.63 43.81 43.61 44.49 45.31 46.49 47.40 47.57
38.16 40.11 37.26 36.49 38.40 39.45 41.18 42.01 42.81 42.94 41.93 42.69 42.78 41.59 40.98 39.88 40.80 41.01 41.71 40.44 39.63 40.56 39.17 39.84 39.39 39.51 39.83 41.19 40.75 40.82 41.31 42.49 41.84 40.94 41.70 42.56 41.85 43.29 44.38 44.43 45.07 44.90 45.15 45.90
38.46 39.26 36.71 37.46 38.84 40.42 40.40 42.11 42.06 41.80 42.52 41.78 42.50 42.06 40.56 40.71 40.40 41.17 40.71 39.72 39.21 40.08 39.13 39.53 38.50 38.18 38.53 39.67 40.10 40.70 41.12 41.58 40.74 40.78 40.83 41.25 41.80 42.67 42.57 43.14 43.24 43.45 45.30 45.77
40.03 38.29 37.23 35.90 40.32 39.43 40.39 42.33 42.66 41.20 40.54 41.35 39.95 40.12 41.52 41.61 41.32 41.89 41.32 39.96 39.73 39.33 38.35 38.33 38.45 38.77 38.03 37.92 38.40 39.09 40.11 40.55 39.43 38.84 39.98 41.22 41.16 41.54 42.06 42.22 42.56 41.76 40.99 41.22

GFSCGP_sfc_wetblb_108.txt.gz
Wetbulb
49.68 46.04 43.91 46.03 46.97 46.41 43.82 43.22 42.89 45.51 47.68 46.66 46.68 47.35 49.08 51.36 51.60 51.53 52.29 53.20 53.95 54.91 56.94 58.21 59.74 61.88 63.09 65.19 67.44 70.55 72.28 74.91 75.09 74.04 73.28 73.01 72.07 72.82 72.72 72.79 73.44 73.54 73.53 73.10
46.15 43.13 46.89 46.35 45.51 44.77 44.10 43.01 43.61 45.83 47.33 46.38 46.60 46.28 49.09 50.41 51.00 52.00 52.21 52.53 53.44 54.61 56.06 57.39 58.71 60.26 61.92 64.20 66.01 67.60 70.11 73.12 74.75 74.40 74.30 74.03 73.42 73.36 73.10 72.67 73.17 73.01 72.95 74.66
43.91 45.15 46.74 45.44 44.12 43.32 44.23 43.42 43.45 43.39 46.00 47.31 46.08 44.69 46.82 49.56 50.82 51.49 52.28 53.35 53.92 54.26 54.82 56.21 56.71 58.70 61.07 62.20 64.24 66.06 68.40 70.20 72.91 74.78 74.51 73.97 74.05 74.10 72.93 72.70 71.91 72.63 72.87 72.61
45.14 47.58 44.82 44.47 43.55 45.29 42.09 46.37 45.03 44.22 43.42 40.29 46.19 38.82 45.55 47.93 48.83 50.28 51.59 52.58 53.20 54.42 55.13 55.95 57.23 58.11 60.04 60.97 63.14 64.93 66.73 68.64 70.48 73.48 74.09 75.21 72.43 71.57 72.64 73.55 73.14 73.28 73.34 72.59
43.51 44.35 44.06 43.35 44.43 46.59 44.14 46.15 45.06 44.69 43.54 43.28 43.27 40.72 44.47 48.11 46.19 48.58 50.93 52.34 53.81 54.78 55.22 55.43 56.83 58.45 59.77 60.84 61.72 63.34 65.87 67.19 68.71 71.78 73.50 73.40 73.38 72.25 72.95 72.63 74.99 75.31 74.82 73.56
46.34 48.59 46.49 46.22 46.79 46.57 46.85 45.12 45.83 45.86 44.02 38.25 42.79 42.01 42.30 45.33 47.41 49.28 51.47 52.24 53.11 53.60 55.30 56.77 57.97 58.88 59.34 60.43 61.43 62.94 64.28 65.70 67.50 68.22 69.96 71.94 73.84 73.48 71.67 73.03 72.46 72.75 73.26 73.50
45.34 45.99 48.45 48.43 45.53 47.83 46.53 44.08 38.32 37.71 38.30 37.19 45.18 42.59 44.62 48.85 49.59 50.22 50.65 51.75 53.57 54.97 55.70 56.32 57.15 58.20 59.85 60.87 62.02 62.62 62.85 63.62 65.86 66.68 67.45 68.97 71.58 73.96 74.04 73.29 71.72 72.48 70.96 71.15
40.50 38.22 46.14 48.39 46.35 45.01 46.03 45.20 39.41 33.13 35.98 39.55 43.16 38.92 44.38 48.85 50.40 51.53 51.64 53.14 53.56 54.26 55.69 56.04 56.94 57.88 58.41 59.56 61.34 62.07 62.60 62.94 63.83 64.90 66.21 67.46 68.67 69.78 71.62 72.01 71.16 70.71 69.96 70.43
41.02 40.49 45.96 46.57 47.98 47.30 44.99 41.82 46.78 41.25 42.45 38.64 41.46 44.83 48.34 49.83 49.69 50.30 50.86 51.86 52.46 53.70 54.88 55.50 56.77 57.55 58.28 59.27 60.39 61.33 62.08 63.02 63.76 63.90 64.96 66.28 67.66 69.09 70.18 70.82 70.31 69.28 70.99 68.56
44.24 38.88 45.80 46.23 47.36 48.00 45.64 47.93 40.87 41.82 33.02 32.25 38.46 40.58 41.69 45.62 47.41 49.91 50.20 50.92 52.24 53.37 53.80 55.16 56.24 57.22 58.07 59.10 60.24 60.46 61.36 62.28 63.39 63.62 64.22 64.86 66.64 67.57 67.86 67.58 67.55 67.65 67.36 65.99
45.11 41.43 42.12 46.30 43.07 41.83 43.46 42.76 43.69 43.52 41.28 34.86 33.68 38.84 48.00 47.22 48.29 48.36 50.43 51.28 51.71 52.40 52.94 54.41 55.29 56.42 57.56 58.37 58.95 59.55 60.07 60.76 62.02 63.03 63.53 64.08 64.83 65.03 64.99 64.70 64.63 65.21 66.76 65.64
44.81 41.74 38.03 41.75 47.28 47.18 45.08 42.75 42.61 36.98 36.75 39.80 37.72 38.80 49.98 49.83 49.75 49.33 49.47 50.26 51.45 52.21 53.10 54.45 55.30 55.77 56.35 57.36 58.11 58.51 60.41 59.30 59.57 60.38 61.97 61.66 62.93 62.83 63.29 63.08 63.79 65.14 65.31 64.93
44.39 39.51 35.16 38.17 43.01 45.72 42.92 44.15 43.59 43.43 41.79 38.13 35.07 38.73 48.56 48.88 48.75 49.63 48.55 49.24 50.92 51.92 53.04 53.83 54.52 54.66 54.79 55.57 56.41 56.59 57.33 57.34 59.52 59.31 59.17 59.11 59.36 60.74 61.91 62.94 63.55 64.14 64.24 64.75
43.13 41.07 37.97 33.56 37.46 40.38 38.73 40.89 42.75 40.59 36.07 38.06 37.38 40.84 43.91 47.29 46.46 47.51 48.16 50.26 51.09 51.31 51.89 52.69 53.31 54.21 54.26 54.48 54.11 54.80 55.54 56.01 56.08 56.26 55.73 57.09 58.39 59.32 60.11 61.36 62.24 63.74 63.78 63.74
41.14 36.32 38.49 38.93 39.36 39.74 38.83 38.91 40.04 38.23 39.12 34.61 39.51 40.69 44.02 45.44 46.20 47.43 49.34 50.31 49.66 49.77 49.43 50.16 50.86 52.54 52.67 52.62 53.06 53.59 53.72 53.73 55.25 54.89 54.67 52.01 53.73 57.25 58.59 59.17 59.57 60.34 60.87 61.93
41.98 36.16 38.31 35.80 38.76 38.35 36.33 38.74 39.55 39.79 40.06 40.68 40.89 39.76 46.25 47.51 48.45 48.09 48.46 46.95 48.45 49.28 49.86 50.55 51.31 51.59 51.42 51.80 51.88 52.15 52.22 52.37 53.77 53.59 53.91 53.84 52.01 52.62 54.80 56.15 58.14 59.33 59.55 60.44
38.74 37.82 35.25 32.16 36.40 36.63 33.23 38.36 39.56 40.59 42.00 41.17 37.74 42.88 47.18 46.28 45.86 46.72 48.18 48.58 48.16 48.66 49.47 49.99 51.08 51.64 51.97 51.83 52.10 51.43 52.05 52.83 52.37 52.22 52.82 53.29 53.11 52.49 52.15 53.41 54.89 56.03 57.35 60.16
39.16 38.08 36.67 32.46 35.09 26.31 39.09 43.92 43.10 41.15 42.08 44.14 44.34 45.30 44.89 44.76 47.24 48.40 48.93 48.31 47.81 48.52 49.28 49.83 50.69 50.99 51.64 52.32 52.09 51.86 51.81 51.92 51.62 51.27 51.78 52.24 52.37 52.47 52.51 53.12 54.51 57.20 57.69 57.69
43.16 38.51 34.30 31.60 31.24 36.25 39.00 41.05 40.96 40.00 40.23 44.55 44.18 45.24 45.63 46.15 46.79 46.37 49.21 49.10 48.52 48.78 48.81 48.62 48.60 49.22 49.77 50.39 50.98 50.30 50.53 51.05 50.94 50.61 51.15 51.80 52.22 52.08 52.53 51.92 52.84 55.38 55.30 57.04
41.99 40.56 36.46 34.20 29.46 27.41 38.35 43.09 45.31 44.56 36.91 45.11 43.92 43.80 44.14 44.91 39.48 43.53 48.50 48.56 48.63 49.44 49.16 47.64 49.93 49.46 48.95 49.51 49.73 48.85 49.63 49.42 48.96 49.51 49.89 51.13 52.00 51.72 51.45 51.98 52.31 53.31 53.93 54.29
35.42 35.66 33.56 33.66 32.27 36.29 42.48 43.68 45.22 32.93 37.08 44.98 45.43 45.03 44.52 42.55 44.47 46.77 47.89 48.05 48.90 47.95 48.05 46.96 46.63 45.20 47.27 47.69 47.53 45.14 46.13 46.13 48.51 49.51 50.03 50.01 51.25 51.19 51.58 51.75 51.59 51.70 51.87 52.66
35.37 33.90 33.10 34.91 31.27 29.11 44.10 43.03 37.78 43.40 46.09 45.73 45.41 45.62 44.77 45.68 45.90 45.90 46.04 45.86 47.10 46.98 46.65 47.41 44.05 44.50 46.08 46.26 45.20 44.61 44.70 46.93 47.70 47.10 47.20 47.75 48.60 48.83 49.12 50.01 50.75 50.73 50.66 50.29
35.18 39.11 37.48 38.34 38.60 43.58 46.69 44.83 47.17 46.63 44.55 44.55 44.44 45.27 45.07 44.25 41.67 42.23 44.42 45.96 45.67 45.74 46.37 46.13 43.57 42.83 43.59 44.54 43.38 42.09 43.55 44.53 44.58 43.69 43.63 44.53 44.89 45.79 46.51 46.78 46.72 46.96 48.48 47.95
40.72 43.39 40.12 39.11 41.91 43.74 45.01 45.90 46.11 46.37 44.97 45.37 45.51 45.10 45.00 43.15 43.69 44.39 44.95 45.07 44.67 45.43 44.56 45.54 43.91 41.91 42.00 42.06 42.78 43.01 43.34 44.04 42.51 42.14 42.34 43.44 44.22 44.01 45.24 45.59 45.60 45.26 44.84 45.83
40.97 41.90 40.22 40.65 42.96 44.01 44.28 45.49 45.91 45.86 45.86 45.20 45.43 44.97 44.27 42.46 42.37 44.70 44.33 43.80 44.02 43.73 43.39 43.07 41.39 42.82 40.74 40.49 41.60 43.02 42.47 42.21 40.93 41.55 42.16 42.85 43.21 43.53 43.17 43.62 44.04 44.98 47.41 46.91
43.19 40.94 38.31 38.03 43.02 43.02 43.83 46.36 47.05 44.74 44.11 44.04 43.82 43.20 43.32 44.55 43.13 43.23 43.16 43.50 41.32 41.31 41.18 41.64 40.74 38.88 39.54 40.37 39.54 41.25 41.47 41.71 40.75 40.23 40.87 41.22 41.09 41.59 42.24 42.99 43.86 41.68 41.01 41.11

GFSCGP_sfc_wetblb_111.txt.gz
Wetbulb
51.45 47.10 45.37 47.55 48.80 48.69 47.75 46.48 46.17 48.22 49.96 48.11 47.97 47.92 49.80 52.12 52.53 52.62 53.47 54.26 55.02 55.68 57.72 59.20 60.31 61.90 62.63 64.25 66.70 69.84 72.69 77.22 76.80 74.84 74.16 74.24 73.38 74.33 74.91 75.35 76.92 77.02 76.99 76.82
48.86 45.39 49.01 49.71 48.89 47.41 46.39 45.35 45.30 47.70 49.31 48.80 48.11 47.99 50.26 51.66 52.16 53.15 53.34 54.01 54.78 55.78 56.96 57.98 59.39 61.06 61.84 63.49 65.30 67.16 69.49 73.99 75.46 75.24 76.26 75.43 75.30 74.33 74.74 75.18 76.33 76.65 76.76 76.40
46.10 47.77 48.71 47.63 46.58 45.21 45.84 44.81 45.13 45.13 47.91 48.74 47.54 45.83 47.89 50.65 52.23 53.10 53.91 54.89 55.13 55.43 55.80 57.20 58.24 59.42 60.54 62.25 64.24 65.37 67.05 69.83 73.79 76.65 76.31 76.16 76.06 75.89 73.92 74.01 74.01 75.59 75.31 74.87
47.50 49.29 47.20 45.92 45.25 45.98 43.07 47.34 46.38 45.66 44.90 41.54 48.44 40.67 47.44 49.78 50.29 51.63 52.76 53.49 53.97 54.99 56.16 57.15 57.72 58.79 60.17 60.57 62.09 64.11 66.59 68.04 69.23 73.75 73.01 74.86 73.08 71.20 72.34 73.15 73.99 75.00 75.53 74.80
46.20 46.46 45.76 45.05 45.62 47.25 44.94 48.41 46.89 46.70 45.17 44.85 44.75 42.39 45.58 49.43 48.27 50.43 52.51 53.57 54.48 55.34 56.37 56.47 56.92 58.39 59.72 61.10 61.93 63.59 66.11 66.69 68.49 70.25 73.73 71.42 72.79 72.17 72.63 73.34 75.08 76.33 76.43 75.72
47.33 50.41 48.02 47.41 47.86 48.11 48.89 47.00 46.68 46.75 45.02 39.51 44.01 43.46 44.20 47.01 49.37 50.81 52.67 53.57 54.43 55.27 55.59 56.75 58.44 59.64 59.96 60.93 61.77 63.66 64.86 67.94 67.75 68.24 70.00 72.54 73.30 73.19 72.20 73.36 72.54 72.52 73.92 74.82
47.02 46.94 49.00 49.43 46.67 48.78 47.22 45.23 39.55 38.91 39.48 38.86 46.87 44.57 46.29 50.53 51.17 51.71 51.89 53.06 54.79 55.84 56.22 56.89 57.72 58.56 59.70 60.35 61.48 62.69 63.73 64.31 65.79 66.15 67.07 68.68 70.91 73.36 73.45 74.05 72.17 72.89 71.48 73.17
41.64 40.43 46.99 48.77 46.49 44.91 46.87 46.04 40.69 35.06 37.34 41.21 46.98 42.55 47.06 51.72 52.75 52.92 53.24 53.91 55.03 55.64 56.43 56.83 57.70 58.33 58.69 59.79 60.88 61.67 62.22 62.91 64.48 65.27 65.78 68.09 69.48 67.23 68.76 71.69 72.28 71.42 72.20 72.43
41.77 42.09 49.46 50.02 49.92 48.66 44.90 42.16 47.76 42.80 44.37 40.72 43.27 46.67 50.32 51.91 51.82 52.55 52.59 53.14 54.24 55.06 55.64 56.11 56.77 57.98 58.86 59.46 60.36 60.93 61.45 62.14 63.65 64.89 65.71 66.47 67.23 68.92 68.33 71.02 73.19 71.00 72.96 72.96
46.74 40.47 47.87 48.65 49.68 49.54 47.52 49.11 40.77 43.06 35.19 34.31 40.36 42.61 43.54 48.70 49.56 51.21 51.93 52.60 54.16 54.72 55.35 55.69 56.10 57.15 58.09 58.91 59.90 60.67 61.46 61.07 62.36 63.94 65.00 65.04 65.77 66.56 68.83 70.65 71.38 71.93 72.63 71.55
48.22 43.76 44.68 47.52 45.32 44.88 45.16 43.56 44.75 44.11 41.69 35.69 35.82 40.71 48.67 49.66 50.45 50.71 51.28 52.81 53.46 54.11 54.33 54.64 55.24 56.36 57.31 58.14 58.55 59.88 60.03 60.66 60.82 61.79 63.13 64.62 65.08 65.15 66.69 66.75 67.96 69.98 70.95 68.95
46.62 44.27 40.01 43.48 48.55 49.63 48.57 45.12 45.25 40.17 38.37 42.08 40.16 41.08 50.84 50.73 52.35 51.40 52.21 52.72 53.34 53.18 53.18 53.86 54.76 55.33 56.28 57.06 57.41 58.32 59.58 59.87 60.30 61.10 61.38 62.45 62.62 62.61 61.75 62.03 65.19 66.53 66.66 66.98
45.58 40.46 37.30 39.99 45.25 47.85 45.28 46.63 45.57 45.29 43.64 38.97 36.68 39.76 50.51 50.44 50.49 51.09 51.67 51.32 51.66 52.38 53.28 54.00 54.64 54.68 55.07 56.24 55.98 56.62 57.76 58.32 58.58 58.66 60.40 60.66 60.79 60.85 61.36 62.32 63.93 64.44 65.32 65.02
45.38 43.14 38.62 35.44 39.79 42.07 40.16 42.54 44.68 43.10 37.74 38.72 39.54 41.81 46.28 47.13 47.58 49.56 50.46 50.79 51.50 52.40 52.60 52.99 53.64 54.15 53.48 53.85 54.07 55.55 56.58 57.14 57.67 57.75 58.00 58.29 59.72 59.76 59.42 60.22 61.47 62.94 63.18 64.33
42.03 37.76 40.25 41.02 41.88 42.89 42.06 41.48 41.96 39.97 41.79 37.43 40.85 40.55 44.48 46.79 48.40 48.94 50.52 50.63 50.60 50.96 51.05 51.76 51.73 53.17 52.43 53.02 54.07 54.60 55.26 55.73 56.16 56.06 55.98 57.14 57.89 58.19 57.00 56.57 58.27 60.43 61.68 62.94
43.14 37.50 39.89 37.68 41.37 41.01 39.28 41.60 42.07 41.67 41.66 40.92 41.79 41.61 47.79 49.21 49.59 49.39 49.85 49.42 48.02 48.67 49.73 51.22 52.46 52.22 52.25 52.58 53.28 54.19 54.58 54.81 55.41 54.86 54.38 55.72 56.29 56.99 56.40 55.82 56.02 57.22 58.73 60.15
39.52 39.09 37.46 35.10 39.89 39.26 35.72 40.40 41.35 41.65 43.02 42.29 38.23 42.28 47.63 46.34 47.13 48.60 49.36 49.43 49.13 50.38 51.10 51.09 52.03 52.73 53.37 53.54 53.32 53.37 53.70 55.02 54.18 53.82 54.26 54.22 54.53 55.15 55.97 55.72 55.30 55.06 57.47 58.44
38.57 39.21 38.46 35.22 37.47 28.73 40.32 45.90 44.84 42.66 44.22 45.39 44.66 45.61 47.66 47.75 48.93 49.50 50.36 49.74 49.82 50.29 51.07 51.33 51.83 52.37 52.76 53.12 53.22 53.58 53.41 53.16 53.03 52.73 53.16 53.79 53.71 53.96 55.00 55.37 54.99 56.01 55.27 55.53
42.76 40.17 36.15 33.44 33.69 37.74 40.17 42.40 43.01 41.25 41.24 46.22 45.11 45.94 46.42 47.87 48.27 47.89 50.58 51.23 50.76 50.90 51.20 51.64 52.51 52.27 51.86 51.29 51.57 51.09 50.49 50.29 50.83 51.58 52.18 53.33 53.65 53.03 53.80 53.85 56.15 57.07 56.70 55.89
42.86 42.80 36.68 35.20 31.10 29.25 39.46 44.47 46.88 45.92 37.78 46.89 46.71 45.85 46.12 46.84 41.65 45.47 50.46 50.75 50.43 51.04 51.68 51.59 51.86 51.24 50.47 50.11 50.70 49.51 49.02 48.94 48.36 49.82 51.14 52.76 52.44 52.42 52.02 54.60 56.17 57.06 56.99 56.11
37.46 37.41 35.66 35.25 33.51 37.86 44.39 45.72 46.89 35.56 37.57 45.76 47.05 47.05 46.42 44.42 46.54 48.87 50.03 49.56 50.03 49.98 50.48 51.52 50.95 50.00 50.12 49.96 49.24 47.06 46.18 46.39 46.71 48.49 49.88 50.23 51.01 52.11 53.45 54.55 56.00 55.25 55.23 54.85
36.02 35.57 35.51 36.57 34.07 30.94 46.20 44.96 39.52 43.39 47.40 47.45 46.98 46.61 45.69 46.54 46.84 47.28 47.95 47.95 48.56 49.27 49.97 49.92 48.61 48.38 49.00 49.45 48.36 45.65 44.71 47.27 46.02 46.10 47.12 46.53 47.40 48.37 48.98 49.83 50.05 50.68 51.59 52.89
36.43 39.80 37.50 38.11 38.34 45.56 47.69 46.17 47.96 48.33 46.67 46.34 46.19 46.68 46.45 45.96 46.04 46.76 46.96 47.38 48.06 49.12 49.09 48.78 47.21 46.86 48.26 48.28 47.28 45.82 45.20 46.01 44.87 44.99 44.15 45.20 45.28 46.31 47.21 46.87 47.26 48.48 49.48 49.40
41.44 44.32 39.61 39.84 43.10 43.92 45.53 46.78 47.81 48.16 47.31 47.83 47.58 47.08 46.82 45.24 46.17 46.33 46.56 46.77 47.72 47.52 46.62 47.27 45.34 43.93 44.35 46.62 45.86 44.74 45.04 45.19 43.88 42.76 42.41 43.09 43.86 43.91 45.54 45.42 44.94 44.84 45.47 46.81
41.87 43.59 41.21 40.66 43.68 45.76 46.55 47.08 47.61 47.96 48.64 47.66 47.56 46.71 45.85 46.21 45.71 45.42 46.08 46.49 45.88 45.93 46.21 44.40 42.37 41.77 40.40 42.55 43.44 44.25 43.60 43.33 42.59 42.11 42.74 42.93 43.25 43.46 43.62 45.11 45.42 44.89 45.67 45.00
44.27 42.01 40.37 39.51 44.90 44.57 44.54 47.61 47.90 45.53 46.57 46.40 45.40 45.07 46.30 46.18 45.28 46.24 44.66 44.68 44.81 42.41 41.73 40.76 40.29 39.84 39.78 40.02 41.28 42.05 42.48 41.93 41.08 41.18 41.45 42.13 42.28 42.73 42.78 42.66 42.64 41.55 40.96 41.25

GFSCGP_sfc_wetblb_114.txt.gz
Wetbulb
50.37 46.31 44.38 46.92 48.20 47.87 47.26 46.34 45.68 48.02 49.82 48.90 47.92 47.87 49.35 51.67 52.33 52.00 53.04 54.44 55.68 56.61 58.75 61.69 64.59 64.73 64.06 66.24 69.45 70.65 74.19 78.60 77.52 75.87 74.93 74.39 74.07 74.62 74.56 74.47 75.25 75.29 76.04 75.20
48.26 44.58 48.52 49.44 48.91 47.61 46.69 45.25 45.18 47.97 49.83 48.82 47.82 46.99 49.51 50.86 51.63 52.88 53.06 54.49 55.29 56.52 57.50 59.41 63.52 64.31 65.18 66.68 67.62 69.66 71.22 74.78 76.44 76.08 75.77 75.28 74.59 74.38 75.00 74.99 74.46 75.53 75.69 75.37
45.39 47.88 49.77 48.18 47.46 46.25 45.97 44.75 45.01 45.02 47.75 48.66 47.20 45.35 47.42 50.27 52.25 53.07 53.87 55.32 56.10 56.30 57.15 59.31 60.32 64.21 65.34 65.28 68.06 67.83 69.92 71.57 74.04 75.28 75.37 75.26 75.32 74.63 72.99 73.83 74.27 74.45 74.94 75.35
47.64 50.10 48.08 46.43 45.17 46.23 42.91 47.20 46.08 45.14 44.26 40.49 47.61 38.57 46.76 49.39 49.95 51.59 52.90 54.20 54.86 55.98 57.94 58.95 61.07 63.95 63.80 64.30 65.20 69.31 69.28 68.93 70.93 73.15 71.71 71.71 72.38 71.24 72.27 73.30 73.65 74.34 74.66 73.88
45.70 47.03 46.32 45.16 45.89 47.36 44.33 47.60 46.44 46.30 44.02 43.40 43.47 40.87 44.31 48.90 47.79 50.34 52.87 53.91 55.10 56.18 56.60 57.00 58.11 60.65 62.06 64.40 65.43 67.51 69.37 70.37 71.03 72.22 72.50 69.67 69.83 69.96 72.03 73.08 73.22 75.06 74.01 73.79
47.16 50.22 48.75 47.46 48.30 48.03 48.38 46.38 46.05 46.09 44.16 38.22 42.69 41.93 42.38 45.54 48.78 50.71 52.90 53.91 54.84 54.98 55.87 58.04 59.71 61.16 62.22 63.39 64.06 67.39 68.17 69.63 70.55 70.45 70.58 70.38 70.10 68.79 69.59 69.81 70.26 71.18 71.40 73.07
45.06 46.38 48.59 49.28 45.89 48.34 46.48 43.93 37.48 36.47 36.85 36.11 44.19 42.03 44.96 50.12 51.60 52.12 52.52 53.13 54.77 56.05 56.36 57.09 57.95 58.24 61.54 62.49 64.43 63.25 65.54 65.53 67.59 68.39 68.64 69.00 69.72 70.38 69.02 68.67 69.41 69.54 69.74 71.37
40.69 39.72 47.13 49.34 46.83 44.19 44.88 44.42 38.16 32.47 34.89 38.83 45.97 41.81 45.60 52.54 53.91 53.84 53.99 55.17 55.72 55.69 56.41 56.84 57.55 58.83 58.32 61.27 63.03 63.63 64.19 64.17 64.77 65.16 67.02 68.08 68.64 66.60 66.61 68.23 68.47 67.96 68.74 69.91
41.56 41.83 49.32 50.14 50.70 48.46 44.42 41.52 46.37 40.47 41.77 38.55 41.79 45.84 50.85 52.91 52.63 52.83 53.01 53.87 54.57 55.97 56.36 55.94 56.50 57.71 59.28 61.07 63.23 64.25 63.97 63.57 64.38 64.94 66.47 68.04 66.94 67.05 66.66 68.01 68.38 67.56 69.66 69.83
46.88 40.83 48.12 49.24 50.79 50.60 47.04 48.18 40.07 41.07 32.53 31.86 39.05 41.68 42.73 48.72 49.50 51.07 52.27 52.53 54.34 56.12 55.59 55.65 56.14 58.11 58.59 59.38 62.96 64.15 63.71 61.76 60.84 64.19 65.50 64.11 67.18 65.62 66.58 65.55 67.09 68.04 69.16 69.15
48.42 44.67 43.86 47.35 45.29 44.89 45.61 43.32 44.41 43.62 41.07 34.35 34.29 39.55 48.61 48.78 51.10 51.78 52.23 53.37 54.18 54.39 54.49 54.49 54.62 55.77 56.31 57.15 57.64 62.42 61.62 60.08 60.22 61.23 58.86 63.07 63.80 64.22 63.79 64.16 64.25 64.60 66.33 68.18
47.55 44.81 39.76 42.18 48.11 49.91 48.53 46.05 45.32 39.40 37.75 41.22 39.72 39.75 50.90 50.85 51.33 51.60 51.22 53.38 54.21 54.03 53.67 53.35 53.88 55.13 56.18 56.98 57.40 58.24 60.29 58.95 59.32 59.48 59.82 59.47 63.26 63.42 63.30 63.44 63.58 64.00 62.88 63.54
46.96 42.31 36.36 38.82 44.19 47.10 44.37 45.74 46.82 46.40 45.49 39.61 36.64 38.85 50.13 49.90 49.48 50.74 50.79 52.34 53.17 52.74 52.58 53.22 53.97 53.76 54.38 55.68 55.82 56.35 57.07 57.28 58.10 58.46 57.58 59.44 59.07 60.74 61.63 61.33 61.74 62.39 60.29 60.42
46.37 42.74 39.03 34.70 39.27 42.90 39.32 40.71 42.78 42.35 38.23 38.47 39.83 41.75 46.21 47.18 47.15 48.97 50.33 51.35 51.99 51.91 52.55 52.83 53.06 53.06 53.91 54.64 55.12 55.36 55.89 56.49 56.71 56.90 56.51 56.84 57.01 60.04 60.64 60.56 59.70 59.69 59.14 58.17
44.80 38.23 40.33 40.79 42.03 42.09 41.36 41.21 42.07 40.59 41.69 37.64 41.19 41.54 45.28 47.30 46.47 48.72 51.12 51.32 50.93 50.81 51.46 51.48 52.12 53.26 54.34 55.00 55.36 55.01 54.87 55.10 55.90 55.63 55.37 55.67 57.29 56.88 58.91 58.49 58.41 58.74 57.90 57.88
44.91 36.77 39.48 37.44 40.85 41.39 39.72 41.85 42.22 42.06 42.43 42.21 42.15 41.52 47.57 48.99 49.25 48.96 49.39 49.67 49.52 49.85 50.81 51.76 52.74 53.42 53.65 53.99 54.78 55.19 54.76 54.81 55.82 55.26 54.88 55.13 55.33 55.74 55.54 57.75 57.98 58.14 57.61 56.82
39.26 37.88 36.40 33.00 39.38 39.60 36.23 40.78 41.60 42.44 43.72 42.74 38.72 43.41 47.08 46.43 47.47 48.30 49.13 49.19 49.25 50.06 50.72 50.88 52.29 53.12 54.14 54.47 54.95 53.65 54.78 54.60 54.15 54.10 54.01 54.27 54.41 54.31 54.66 54.86 57.12 56.92 56.88 56.13
38.57 36.87 36.21 34.21 37.08 29.07 40.64 46.60 45.47 43.15 43.88 45.11 44.92 45.95 46.70 47.68 49.07 49.34 49.40 48.77 49.08 50.16 50.61 51.13 51.49 52.62 53.12 53.89 54.27 54.53 53.69 52.96 52.60 51.95 51.28 52.29 53.05 53.02 53.42 54.15 53.73 55.96 56.73 56.08
41.05 37.60 34.67 33.20 33.01 37.74 40.71 43.49 42.81 39.71 41.07 46.35 45.54 45.60 45.90 47.49 47.85 47.18 50.27 50.80 50.55 50.79 50.82 51.35 52.09 52.72 53.16 53.07 53.69 52.93 52.01 51.66 51.36 50.60 50.30 50.17 50.65 49.43 48.97 50.40 53.57 53.95 55.77 55.90
41.97 40.64 35.62 35.13 31.55 28.57 39.86 44.75 47.19 45.90 36.28 46.18 46.24 45.45 44.91 45.92 39.97 43.77 49.44 49.41 49.19 50.33 50.71 50.33 50.76 51.58 51.85 52.88 52.44 51.68 50.37 49.55 48.87 49.39 49.39 49.93 49.35 48.76 47.85 47.84 48.50 52.45 52.98 54.55
36.80 35.96 32.50 32.62 32.35 36.44 44.29 45.81 47.24 34.91 37.75 46.52 46.88 46.13 45.28 42.77 44.71 48.19 49.30 49.06 49.84 49.92 50.20 50.69 51.18 51.04 51.83 52.31 51.75 49.48 49.18 48.33 49.10 49.11 49.27 48.91 48.76 47.93 48.43 47.79 47.45 47.80 50.60 51.46
36.58 35.58 34.82 36.63 32.66 30.85 45.98 45.47 39.55 43.87 47.05 46.89 46.66 46.16 45.20 45.85 46.23 46.77 47.44 48.32 48.79 48.79 48.64 49.29 49.35 49.82 50.11 50.74 49.36 48.18 47.94 49.43 48.66 47.85 46.77 47.32 47.12 46.83 47.03 46.99 46.43 47.34 47.93 47.83
36.30 39.37 35.67 36.46 38.47 45.60 47.16 46.32 48.17 48.26 46.63 46.54 46.33 46.70 46.21 45.39 45.23 45.74 46.34 47.71 47.97 47.96 48.28 49.85 48.04 47.69 48.30 48.02 47.36 45.45 46.21 46.92 46.40 45.80 45.85 46.26 45.61 45.05 45.32 44.67 44.82 45.85 45.76 45.12
41.33 44.84 39.98 40.12 43.22 44.25 45.01 47.87 47.98 48.22 47.26 48.02 48.32 47.28 46.55 44.79 45.33 45.27 46.32 46.52 46.71 47.87 46.80 46.66 45.19 44.10 43.52 44.36 44.40 43.78 43.47 44.42 44.16 43.40 42.98 43.88 43.61 43.95 44.30 43.97 44.46 43.96 43.84 43.92
41.61 43.05 41.06 40.89 44.00 45.21 45.38 45.77 45.77 47.45 48.19 47.48 47.11 46.13 45.42 44.89 44.50 44.73 45.22 45.72 44.99 44.91 44.19 43.32 41.60 41.15 41.10 41.66 41.39 42.15 42.10 41.75 40.89 41.72 41.83 42.08 42.75 42.23 42.48 43.47 43.78 43.68 44.72 44.60
43.80 41.65 39.48 38.37 44.41 43.93 43.85 45.85 47.38 46.20 45.49 45.33 45.02 44.66 45.26 45.22 44.79 43.94 42.96 43.93 43.26 41.16 40.79 39.83 39.23 38.42 38.68 39.35 39.84 40.78 41.62 41.17 40.86 40.15 40.23 40.35 40.67 41.59 41.94 42.11 42.30 41.34 40.61 40.85

GFSCGP_sfc_wetblb_117.txt.gz
Wetbulb
46.77 39.93 37.61 41.38 43.27 43.61 43.41 41.80 41.24 43.44 46.30 44.52 43.67 43.75 45.47 47.51 46.74 47.28 48.17 49.45 49.83 51.14 53.28 53.69 57.09 57.72 58.28 59.25 59.63 60.99 65.58 69.02 71.53 72.39 71.93 71.54 71.92 71.66 71.01 71.74 71.84 71.50 72.92 71.95
43.14 38.34 44.71 47.35 46.90 45.18 43.86 41.39 40.52 44.16 47.12 43.96 42.86 42.81 45.63 46.79 46.82 47.32 48.12 48.82 49.82 50.44 51.87 53.93 54.48 56.03 56.95 58.79 60.72 60.93 61.48 64.71 70.31 70.50 71.58 71.72 70.93 71.44 71.26 71.55 72.32 72.68 73.42 73.38
40.78 44.45 48.53 46.66 45.00 43.81 42.55 40.85 40.92 41.38 45.13 44.85 42.42 39.82 43.20 46.86 47.66 48.75 48.97 49.18 50.54 50.68 50.89 51.83 54.17 54.93 56.76 57.43 58.42 59.87 60.70 61.46 64.14 66.88 68.82 69.62 70.42 70.59 69.95 70.68 71.90 72.22 72.52 74.06
43.70 47.69 47.08 45.64 43.59 43.38 38.35 44.75 44.67 43.60 40.24 33.63 41.97 31.66 40.28 43.69 44.85 46.68 48.17 47.89 49.47 50.60 52.16 52.98 52.85 54.44 55.15 55.80 56.81 59.73 62.36 61.99 63.06 63.38 64.22 64.55 65.80 66.55 68.03 68.05 70.24 70.94 71.67 72.58
43.26 44.53 43.77 43.19 43.81 45.14 41.39 45.58 43.39 42.81 38.49 35.55 38.11 33.11 37.16 42.91 42.67 45.50 47.51 47.89 49.12 50.49 51.46 51.27 52.32 53.62 54.90 55.16 56.46 58.22 60.47 61.19 61.59 62.35 62.25 61.61 61.82 63.81 65.04 66.77 67.97 68.32 71.04 72.28
44.88 48.44 46.63 44.88 46.86 46.11 46.77 42.58 41.49 39.39 36.43 29.63 36.69 35.48 36.55 40.73 42.82 45.02 47.35 49.33 50.24 49.76 50.33 52.58 53.50 53.74 54.65 55.69 58.20 58.57 59.33 59.96 61.01 60.96 61.26 62.27 61.14 61.53 62.51 63.15 64.75 65.99 67.20 67.92
42.80 43.69 46.44 48.02 43.21 45.34 42.60 36.12 28.25 27.09 27.85 28.08 39.32 36.26 38.94 43.67 47.01 48.03 48.33 49.15 50.13 51.35 50.82 51.47 52.05 53.04 53.37 54.23 54.63 56.55 56.41 56.18 57.90 58.78 59.05 60.43 61.61 61.90 62.79 63.99 63.54 63.06 64.07 65.17
37.97 36.86 45.44 48.80 43.62 40.38 40.50 37.34 29.63 23.89 25.74 31.04 40.78 36.17 40.38 49.05 50.71 51.86 52.09 51.15 51.56 50.84 50.43 51.08 51.56 51.62 53.14 54.50 54.74 54.80 54.73 54.36 55.53 55.58 56.57 60.28 60.99 61.04 61.06 61.36 61.20 64.06 64.91 65.56
36.98 39.59 48.45 49.38 49.46 47.01 42.55 36.75 40.90 34.67 35.14 30.13 34.47 39.64 45.23 50.00 50.22 50.28 51.00 51.30 50.56 50.15 50.18 50.51 51.13 51.40 51.38 52.57 54.03 54.66 54.94 55.24 56.32 55.78 57.74 58.39 60.47 60.69 60.68 61.80 61.76 62.70 63.63 64.82
43.67 37.33 46.46 48.53 49.73 48.89 45.25 46.86 37.40 35.50 26.34 25.03 33.52 36.51 38.38 45.15 46.61 49.09 50.05 49.92 50.73 50.47 50.37 49.82 49.59 50.03 50.30 49.91 51.58 52.85 54.20 54.85 55.22 55.33 56.19 57.54 58.50 59.48 59.18 59.41 59.57 59.93 60.25 61.43
43.67 40.47 41.61 44.55 41.92 40.36 42.34 41.55 41.22 38.83 37.09 29.88 28.13 34.87 45.86 45.52 46.85 45.75 47.68 50.23 48.41 48.49 48.31 47.87 48.26 49.32 50.97 51.31 51.79 52.89 52.74 52.80 52.95 54.98 54.95 55.61 56.86 58.04 59.14 57.95 58.72 59.07 59.98 59.89
43.85 39.59 35.98 40.09 44.71 46.06 43.41 41.11 42.12 35.63 32.28 34.29 32.31 34.15 46.40 46.57 47.79 48.52 48.32 50.10 50.41 50.61 50.26 47.86 49.24 49.24 50.61 51.55 52.26 51.68 51.65 51.48 52.40 52.87 52.57 53.18 55.09 56.37 55.94 56.01 56.77 57.46 57.46 55.93
43.33 36.91 31.13 34.06 39.01 43.90 40.17 42.87 40.69 38.44 39.66 36.45 32.56 35.22 47.07 48.38 46.08 47.72 47.24 48.79 50.57 51.02 48.18 48.27 48.68 48.82 49.35 50.38 51.50 51.17 51.54 51.06 51.54 52.25 51.45 51.38 51.68 53.00 55.16 55.71 56.01 56.36 56.16 55.66
45.57 38.34 35.05 29.23 34.90 39.33 37.68 41.44 41.82 39.68 34.72 36.76 36.24 38.44 42.96 46.09 45.05 45.85 46.67 47.09 49.58 50.02 49.94 49.60 48.47 48.01 48.53 49.73 49.89 51.20 50.83 50.85 50.67 51.10 50.32 49.90 50.15 51.67 52.36 54.75 55.89 55.94 56.16 55.66
42.35 33.30 36.34 37.25 39.06 39.51 38.49 38.31 39.54 38.44 38.12 35.11 37.42 39.56 42.55 44.38 44.82 45.24 46.89 47.71 49.59 49.83 47.99 47.25 47.21 46.87 47.75 48.31 49.44 50.54 50.41 50.54 50.27 50.30 49.96 49.49 50.63 51.16 51.40 51.40 54.19 55.26 55.36 55.87
42.96 34.25 35.47 34.05 38.14 38.38 36.84 39.47 39.56 39.67 40.28 40.76 40.76 39.61 46.16 44.61 43.78 45.02 45.23 46.67 46.87 46.43 47.38 48.68 48.80 48.61 48.84 49.33 49.84 50.96 50.73 50.50 50.33 49.74 49.52 50.58 50.48 50.38 50.00 50.42 51.32 53.74 54.47 54.85
39.66 35.98 31.05 28.18 37.47 37.09 33.26 37.73 39.35 40.14 41.31 40.11 35.63 39.17 42.64 42.73 44.73 44.15 44.21 45.55 45.69 46.59 48.33 48.04 47.34 47.83 47.53 47.75 49.33 48.57 49.38 50.42 49.48 48.79 49.73 50.51 49.34 48.99 48.52 49.21 49.43 49.36 52.32 53.78
38.08 36.51 34.59 30.24 33.49 26.37 37.58 45.08 44.79 42.78 42.15 43.84 42.62 42.57 42.53 42.26 45.56 46.14 46.07 44.05 44.91 46.15 46.47 45.93 45.35 45.37 46.51 47.39 47.91 48.66 49.12 48.41 48.72 47.94 48.37 48.63 48.03 47.65 47.62 47.28 47.25 46.97 47.90 50.61
40.72 37.94 32.21 30.18 30.89 35.04 38.40 42.18 41.72 40.43 38.89 43.37 42.57 43.41 43.95 44.70 44.93 43.15 46.31 45.43 43.62 43.28 43.99 44.23 44.83 44.92 45.04 45.59 46.76 47.75 47.85 47.82 47.76 47.60 47.48 48.29 48.38 47.01 45.69 44.59 44.97 46.99 47.30 47.47
40.98 39.62 33.01 31.99 29.44 26.95 38.02 43.11 46.08 43.72 33.97 44.58 44.39 42.05 40.59 40.95 34.60 38.33 43.50 43.55 43.54 44.18 44.26 44.12 44.48 44.72 44.35 45.11 46.98 47.30 47.05 45.07 44.90 45.95 46.54 46.96 46.35 45.78 44.86 43.98 43.91 45.29 46.68 47.06
35.39 34.88 31.07 30.68 29.32 33.45 43.41 45.67 46.95 33.17 33.24 43.45 43.65 40.49 39.76 37.63 39.37 41.53 43.07 43.09 43.61 43.51 43.80 44.34 43.67 43.56 45.08 45.37 44.14 43.25 43.54 43.37 45.61 47.02 46.90 46.35 45.18 44.35 44.11 44.61 44.31 44.30 44.73 45.24
34.00 33.18 32.15 33.12 30.37 29.73 44.87 44.20 38.19 41.75 44.16 43.54 41.73 40.67 40.00 40.59 41.59 41.67 42.13 42.07 42.91 42.82 43.56 44.55 43.48 41.89 42.36 43.01 42.35 41.26 41.16 43.52 44.49 44.61 44.57 44.68 45.39 45.92 46.27 44.77 42.97 42.73 43.14 43.10
34.37 38.28 35.15 34.71 35.30 43.33 46.39 45.65 46.40 44.24 41.56 43.47 42.71 42.05 41.13 39.94 39.76 40.67 41.01 41.10 42.32 43.08 42.97 42.00 40.23 39.82 40.44 40.59 40.33 39.17 40.43 41.55 41.66 40.82 40.60 41.61 43.02 44.35 45.59 43.63 42.30 42.87 43.52 42.19
40.42 43.35 38.70 38.12 42.20 42.91 45.22 43.86 45.04 45.12 44.87 44.89 42.99 41.34 41.07 39.09 39.96 40.37 41.03 41.15 40.10 40.33 39.66 39.82 38.32 37.32 37.57 38.90 39.09 38.90 39.53 40.47 39.77 39.08 39.25 40.20 41.65 41.96 43.58 43.66 43.41 42.78 42.35 41.09
38.73 40.35 38.45 38.29 41.69 43.40 43.78 43.59 44.41 45.51 45.76 43.24 42.82 42.07 40.85 40.00 39.92 39.60 38.62 39.20 39.08 38.01 37.68 37.37 36.31 36.25 35.95 36.66 36.79 37.38 38.31 38.44 38.00 38.61 38.85 39.19 40.00 40.19 40.81 42.06 42.04 41.91 43.01 42.43
40.76 39.17 36.00 34.12 41.00 40.09 40.38 43.53 45.46 42.55 41.33 41.70 40.87 40.52 41.45 40.63 38.87 38.73 37.64 37.72 36.82 35.80 35.91 35.52 36.26 35.53 35.45 35.58 35.77 36.62 37.33 37.19 36.62 36.26 37.77 39.23 39.63 40.03 40.46 40.27 40.75 40.79 40.20 40.10

GFSCGP_sfc_wetblb_123.txt.gz
Wetbulb
42.24 37.40 34.86 37.74 38.37 38.96 38.87 37.23 36.42 39.54 43.43 40.87 39.47 39.29 41.85 44.24 43.21 43.52 44.81 45.26 46.07 47.68 50.79 51.16 52.72 56.79 62.56 63.64 64.73 65.64 65.13 66.73 67.75 67.96 66.73 67.96 68.10 66.72 66.39 66.75 67.24 68.20 67.56 67.81
38.64 35.43 41.50 42.49 42.31 41.03 39.71 37.30 36.99 40.14 42.99 40.25 39.99 39.96 41.78 42.85 42.76 44.07 44.57 44.90 45.40 45.39 47.84 50.13 51.70 56.56 60.88 63.17 65.29 65.25 65.83 68.05 68.98 69.60 69.58 69.64 69.83 70.62 70.52 70.33 70.31 69.67 69.13 69.55
36.49 40.63 45.20 42.72 40.80 39.72 38.60 36.90 37.66 38.10 41.65 40.96 38.61 36.86 38.77 42.39 42.76 43.86 44.71 45.37 45.86 46.42 47.33 48.96 51.58 55.04 56.19 58.68 61.58 64.16 66.30 68.47 69.62 69.67 69.36 67.64 68.12 67.33 67.27 67.31 67.85 69.11 68.82 70.36
39.57 44.01 43.55 41.57 40.47 40.82 35.74 41.98 41.64 40.47 36.64 31.90 37.45 29.04 35.46 39.32 41.64 43.10 43.70 43.21 44.79 46.35 47.43 47.96 51.06 52.83 54.04 56.76 56.84 59.39 63.33 65.41 67.47 67.11 65.61 63.73 63.61 61.93 63.28 64.03 64.63 63.52 65.83 66.70
39.36 40.58 40.43 39.43 40.63 42.22 38.71 42.95 40.60 39.56 35.16 32.72 33.53 30.37 34.38 38.58 40.04 41.36 42.23 43.59 44.73 46.39 46.60 47.03 49.31 53.73 52.56 54.58 54.96 57.15 59.65 60.22 60.80 61.06 60.81 59.59 58.20 58.59 60.08 60.29 59.59 60.11 62.07 64.64
41.75 45.31 43.74 42.27 44.00 43.36 43.98 38.82 36.27 33.55 31.44 26.63 31.77 31.86 32.28 36.40 38.99 41.40 43.52 45.70 46.77 45.41 46.26 46.76 48.28 51.18 52.24 53.98 55.47 56.00 57.00 56.94 57.51 57.70 57.21 56.90 56.61 57.22 57.33 56.56 56.43 57.72 58.84 60.40
39.77 40.24 43.67 45.48 41.04 41.31 38.57 32.13 26.18 25.51 25.11 25.76 33.71 31.39 33.76 39.44 43.12 44.07 44.85 45.04 45.13 44.56 44.57 47.46 49.88 51.76 53.23 54.46 54.68 55.58 56.15 55.73 56.64 57.27 57.37 57.60 57.61 57.61 56.42 56.45 56.35 57.07 57.85 58.45
34.94 33.03 42.24 45.49 42.57 39.66 36.53 33.46 26.73 22.49 23.11 26.30 34.91 29.73 34.84 45.40 46.14 46.46 46.25 45.34 46.12 44.95 44.98 47.31 49.95 52.78 53.04 52.64 52.77 53.48 54.17 53.85 53.64 53.70 54.05 55.65 56.19 56.98 56.41 56.94 58.15 58.05 57.93 57.53
35.83 37.47 46.95 47.77 47.69 45.38 39.13 34.91 36.73 29.90 29.12 26.57 29.88 34.83 40.21 45.30 45.70 46.16 45.54 46.33 44.94 44.73 45.67 46.80 47.16 48.04 49.28 49.98 50.12 50.85 51.66 51.55 51.42 51.84 54.00 55.55 56.48 57.18 57.45 57.88 57.04 57.31 56.45 58.92
39.88 35.27 44.23 45.89 47.11 46.68 43.54 44.60 35.50 32.42 25.50 22.76 28.39 30.76 32.29 39.90 41.71 44.03 44.01 42.29 43.31 44.32 44.72 44.73 45.98 47.11 47.61 48.87 50.13 51.21 51.95 52.42 53.03 54.03 54.29 55.40 56.36 56.47 56.02 55.59 55.56 55.46 55.74 56.25
42.13 38.63 39.16 42.65 39.88 37.25 38.90 38.39 39.41 36.90 35.65 27.57 25.80 29.83 42.57 42.62 42.70 42.85 43.38 44.48 44.28 43.43 43.61 44.26 46.08 47.67 49.23 49.67 50.04 50.61 51.21 52.03 51.99 52.61 52.31 52.24 51.81 54.71 55.47 54.86 54.92 54.47 54.75 54.47
42.72 38.15 34.91 37.89 42.32 44.57 39.62 37.23 37.46 32.49 30.10 31.44 29.71 30.80 44.69 45.55 45.68 46.23 45.73 46.87 46.05 45.64 46.28 46.56 47.22 47.84 48.45 49.58 49.99 50.35 50.33 50.50 51.15 51.94 50.93 50.70 52.33 53.68 52.41 52.51 52.52 53.19 53.81 53.81
40.59 34.27 29.79 32.96 36.30 40.21 38.18 39.08 38.33 37.33 35.08 31.07 27.87 31.89 44.61 45.87 46.50 47.14 45.68 47.05 49.87 48.35 47.40 47.37 47.84 48.93 48.87 49.70 50.14 50.65 50.45 50.63 50.56 49.87 49.79 49.61 49.99 49.86 49.86 49.80 51.16 52.08 52.09 52.21
42.57 34.98 32.07 27.99 31.53 35.58 33.79 36.68 36.91 35.23 32.22 32.82 35.18 35.97 40.68 42.62 43.77 46.00 47.10 47.42 47.38 48.05 48.90 47.40 46.36 46.89 47.62 47.69 47.48 48.02 48.09 48.69 48.93 48.77 47.91 47.97 47.80 47.45 47.60 48.30 49.39 50.16 50.60 50.79
37.28 30.69 32.63 34.08 36.25 36.48 35.41 34.97 34.82 33.37 34.37 31.85 33.51 35.89 39.69 41.12 41.54 43.04 46.57 47.62 46.87 46.57 46.00 45.97 45.00 43.42 44.43 45.21 46.46 47.36 47.07 47.25 47.74 47.64 47.16 47.02 47.29 47.36 47.64 47.83 48.34 48.96 49.45 49.99
37.03 29.91 31.78 31.02 35.61 35.24 33.36 35.42 36.72 36.58 36.44 35.14 36.24 35.72 40.96 44.06 44.27 42.21 42.46 42.89 42.34 42.29 43.20 44.11 45.47 45.21 44.64 45.08 45.83 46.82 46.35 46.41 47.07 47.16 47.25 48.02 48.00 47.98 47.57 47.81 47.97 48.09 48.01 48.44
33.90 34.62 30.32 26.43 33.10 32.79 27.45 31.97 33.97 36.88 38.03 36.47 32.12 36.22 39.87 39.37 40.22 38.22 38.50 40.09 41.09 41.49 42.06 42.06 42.87 43.58 43.50 43.31 44.38 44.01 44.64 45.48 46.04 46.34 47.95 48.83 48.37 48.37 48.11 48.37 47.81 47.19 46.67 46.78
33.23 34.79 32.72 29.85 28.46 21.24 31.66 41.15 42.16 40.09 40.76 40.66 39.47 39.60 39.86 38.81 39.46 39.06 38.82 38.09 40.10 40.81 40.84 40.58 40.22 40.69 41.60 41.77 41.68 42.24 43.44 43.86 44.85 44.94 45.87 47.12 47.40 47.38 47.69 46.62 45.62 44.85 43.75 43.56
36.13 34.91 31.98 27.33 26.74 29.67 34.50 39.97 38.84 38.28 38.51 42.61 41.20 41.75 42.65 43.96 40.96 37.75 41.51 41.05 38.58 38.13 39.78 40.14 40.35 40.33 39.98 40.47 41.47 41.34 41.31 41.87 42.30 42.55 43.42 44.83 45.16 44.41 44.16 43.85 43.27 43.48 41.80 42.23
38.31 39.02 33.31 30.75 21.16 22.58 36.75 42.04 45.48 43.22 33.19 42.11 43.67 41.99 39.54 38.52 33.05 35.31 39.13 40.38 40.32 40.42 40.03 39.35 38.92 39.03 39.05 39.31 39.73 38.64 38.68 38.80 39.09 40.45 41.36 42.26 42.60 42.63 42.29 42.62 42.65 43.37 42.41 43.08
34.49 34.20 30.72 30.03 28.19 29.61 40.26 42.42 45.67 33.09 30.06 40.93 39.02 37.00 36.48 34.62 35.77 37.91 38.59 38.89 38.51 38.46 37.99 38.44 38.03 36.88 37.02 37.95 38.01 37.24 37.14 36.89 38.97 40.06 40.21 40.10 40.37 40.24 40.65 41.06 41.73 41.81 42.37 43.23
32.32 32.01 31.05 32.37 29.21 24.71 42.06 42.33 37.00 40.08 43.83 42.93 40.79 37.77 36.08 36.73 38.13 37.77 37.94 37.44 37.31 37.49 38.09 38.10 36.68 35.99 36.33 36.90 36.49 36.02 35.79 37.93 38.19 37.71 37.35 37.48 37.70 38.52 39.78 39.36 39.57 40.17 40.32 40.36
31.03 36.29 34.12 35.66 31.25 39.56 43.23 43.53 44.80 44.98 43.47 43.15 39.57 38.85 38.52 37.07 35.87 36.65 35.71 34.98 36.55 37.07 36.77 36.63 34.99 34.91 35.89 36.18 35.47 34.71 35.82 36.60 36.38 35.85 35.62 36.01 37.59 37.78 38.38 37.96 38.33 38.60 39.18 40.12
36.58 40.10 37.70 34.62 38.86 41.10 41.81 43.54 43.56 44.62 43.65 43.43 41.63 40.75 37.76 34.95 34.68 34.26 35.49 35.67 35.69 35.75 35.27 35.33 33.79 33.26 33.17 34.66 35.29 35.07 34.76 35.26 34.65 33.58 34.15 35.73 35.65 36.06 37.05 38.71 39.57 39.20 38.39 39.13
36.72 36.43 35.31 35.23 38.18 40.61 42.33 42.14 42.70 42.88 41.06 39.87 39.66 37.67 35.25 34.86 35.09 35.27 34.56 34.73 34.39 33.61 33.30 33.14 32.39 31.99 32.75 33.18 32.76 34.27 35.49 35.36 33.90 34.01 34.36 34.73 35.07 35.26 35.97 36.94 37.50 38.56 40.58 40.87
38.59 37.93 36.23 32.90 39.69 37.30 36.68 37.23 39.06 37.29 36.95 38.13 35.76 35.16 35.37 35.94 34.22 34.30 33.50 33.48 31.99 31.21 32.20 31.50 31.76 30.72 30.90 31.96 33.38 34.01 34.70 34.69 33.49 32.87 33.22 33.86 34.59 35.07 35.59 35.63 35.74 37.65 38.14 38.78